Location: Munkebjergskolens Observatorium
(55.3864°N, 10.3987°E)
Time: 12:54:46
(UTC+02:00)

QB50P2 - Pass Details

Date: 01 April 2023
Orbit: 581 x 596 km, 98.0° (Epoch: 30 May)

Event Time Altitude Azimuth Distance (km) Brightness Sun altitude
Rises 04:58:17 0° 6° (N) 2,844 ? -15.7°
Reaches altitude 10° 05:01:03 10° 346° (NNW) 1,934 ? -15.3°
Maximum altitude 05:03:46 17° 306° (NW) 1,520 ? -15.0°
Enters shadow 05:05:00 15° 285° (WNW) 1,609 ? -14.9°
